RH
4 3 3 3 3 3 4 4 4 4 5 8 13 19 21 30 35 33 22 16 15 29 40 66 100 100 100 100 100 96 88 84 100 100 94 87 92 98 98 100 100 100 100 100 100 100 78 98 95 83 68 68 87 71
5 4 3 3 3 3 3 4 4 5 5 7 9 14 18 23 28 24 20 20 16 17 27 39 49 76 100 100 100 100 100 89 89 94 100 100 89 98 100 89 95 91 100 100 100 93 79 87 100 93 84 69 70 79
6 5 4 4 3 3 3 4 4 6 6 8 10 13 15 17 19 26 20 19 20 15 14 22 27 30 47 72 98 100 100 95 94 100 96 99 97 98 99 100 100 98 94 94 97 92 100 100 98 92 82 76 75 79
8 6 5 4 4 4 4 4 5 6 7 9 10 12 13 14 15 18 17 23 18 17 11 11 20 26 36 42 50 76 88 98 100 100 99 89 85 83 86 100 100 100 99 97 93 96 100 98 98 99 99 87 83 71
8 8 6 5 4 4 5 4 4 6 6 6 6 8 10 12 12 14 20 21 17 14 12 12 14 18 24 31 36 39 44 57 60 71 83 85 89 86 83 80 69 77 100 100 99 100 100 99 97 92 88 91 97 98
10 9 8 6 6 5 6 6 6 5 5 6 9 10 10 11 13 12 16 17 16 18 16 12 14 17 17 19 26 36 38 40 42 49 56 53 56 61 59 55 64 69 74 81 92 93 81 87 94 92 94 95 99 100
11 11 11 9 7 6 6 7 8 7 6 6 8 11 15 20 27 32 36 29 27 22 23 20 19 23 21 18 15 17 25 36 38 33 34 36 37 41 40 42 49 51 60 73 80 79 76 75 78 85 94 90 80 75
12 13 13 12 11 9 7 7 8 9 9 8 8 9 11 12 16 26 35 39 38 37 29 24 21 25 24 21 18 19 18 18 22 26 30 33 34 32 30 29 29 29 32 36 46 56 61 65 62 59 60 65 71 71
11 12 12 12 13 12 11 9 8 8 9 10 10 10 9 9 10 13 15 16 16 14 15 16 19 20 24 25 22 17 17 18 17 16 19 23 25 26 27 30 32 30 29 30 31 37 45 52 66 77 79 70 67 61
12 12 12 12 12 13 14 13 12 10 9 10 10 12 11 10 10 10 10 11 13 16 19 22 22 22 22 23 22 22 19 20 16 15 15 16 18 21 22 24 25 27 30 30 29 29 30 30 29 28 27 27 27 25
12 12 12 12 12 12 12 14 15 14 14 13 11 11 12 13 13 13 11 11 10 11 11 12 14 16 17 19 20 19 18 18 14 13 15 12 13 14 16 15 17 17 18 20 22 24 24 23 21 20 18 17 17 17
12 13 14 13 12 12 12 12 12 13 13 14 14 14 14 14 15 15 15 15 14 13 12 12 11 11 11 10 12 13 13 12 10 12 14 11 11 13 12 11 11 10 9 9 10 11 13 14 16 18 19 19 19 19
15 14 15 15 16 15 15 14 13 12 12 12 13 13 14 14 15 18 18 18 18 18 18 16 15 13 13 13 12 12 11 10 10 9 9 9 10 9 8 8 7 7 6 6 7 7 7 8 8 9 10 10 11 11
16 14 14 15 15 15 15 16 15 15 14 13 12 12 12 13 14 14 15 16 16 16 17 20 20 18 15 14 12 12 10 10 10 11 12 10 9 8 8 8 7 7 7 6 6 6 6 6 6 7 7 8 8 8
13 13 13 13 12 12 12 14 14 15 14 13 14 15 14 13 13 13 14 13 14 14 15 15 17 18 17 17 16 15 14 13 12 12 10 10 10 9 8 8 8 8 7 7 7 7 7 7 7 7 7 7 7 7
12 12 13 13 13 13 12 11 12 14 14 14 15 16 17 18 18 17 16 15 13 12 12 12 12 11 10 10 10 8 8 9 9 9 9 9 9 8 8 7 7 7 7 7 6 6 6 6 6 6 7 6 6 7
12 13 13 13 12 12 12 12 13 13 14 16 18 18 18 17 16 15 15 14 13 13 12 12 12 12 11 11 10 9 8 7 7 6 6 6 6 6 5 5 4 4 4 5 5 5 6 5 6 6 6 6 6 6
10 10 12 12 13 14 15 17 18 18 19 20 20 19 17 15 14 12 10 9 9 8 8 8 7 7 6 6 6 5 5 5 6 6 5 5 5 5 5 5 4 4 3 3 3 4 4 3 3 3 4 4 4 4
10 11 12 12 13 15 18 20 22 22 23 23 19 16 14 11 9 8 8 7 6 6 5 5 5 4 4 4 4 4 4 4 4 3 3 3 3 3 3 3 3 4 4 3 3 3 3 3 3 3 3 3 4 4
11 12 13 15 17 21 22 24 23 21 16 12 10 8 8 8 7 7 6 5 5 5 5 5 5 5 5 4 4 3 3 3 2 2 2 2 2 2 2 2 2 2 2 2 2 2 2 2 2 2 2 3 3 3
12 13 15 17 21 22 23 19 14 9 7 7 7 7 7 7 6 6 6 6 6 6 6 5 5 5 4 4 4 4 3 3 3 3 3 2 2 3 3 3 3 3 2 2 2 1 2 2 2 2 2 2 3 2
15 18 21 21 23 21 12 8 8 8 8 8 8 8 7 6 5 6 6 6 6 6 5 4 4 3 3 3 3 3 3 3 4 3 3 3 3 2 2 2 2 3 3 3 2 2 2 2 2 2 2 2 2 2
17 18 19 19 12 9 10 13 13 12 11 10 8 7 6 6 6 6 5 5 4 3 3 3 3 3 2 2 3 3 4 4 3 3 3 3 3 2 2 2 2 2 2 2 2 2 2 2 2 2 2 2 2 2
14 15 12 10 11 16 17 18 15 14 10 8 7 7 6 5 5 5 4 3 3 3 2 2 2 3 3 4 4 4 3 4 4 3 3 2 2 2 2 2 2 2 2 2 2 2 2 2 2 2 3 3 3 2
14 10 9 13 16 21 22 21 19 14 10 9 7 6 6 5 5 4 3 2 3 3 3 3 3 3 3 3 3 3 3 3 3 3 3 2 2 2 2 2 2 2 2 2 2 2 2 2 2 2 2 3 3 3
7 10 14 18 24 24 21 19 14 10 8 8 6 6 6 6 5 4 3 3 3 3 3 3 4 4 3 3 2 2 3 3 3 3 3 2 2 2 2 2 2 2 2 2 2 2 2 2 2 2 3 3 3 3
12 18 21 23 21 19 16 13 10 8 8 8 7 6 6 6 6 5 4 3 3 3 3 4 4 4 3 3 2 2 2 3 3 2 3 2 2 2 2 2 2 2 2 2 2 2 2 2 2 2 2 3 3 3
14 16 16 13 11 10 9 8 8 8 8 7 6 5 5 5 5 4 4 4 3 3 3 4 4 4 4 3 3 3 3 2 3 3 3 3 2 2 2 2 2 2 2 2 2 2 2 2 2 2 3 3 3 3
9 8 7 7 7 6 6 6 6 6 6 6 6 5 5 5 5 4 3 3 3 3 4 5 4 4 4 4 3 3 3 3 3 3 3 3 3 3 3 3 3 2 2 2 2 2 2 2 2 2 2 2 2 3
5 5 5 6 6 5 5 4 4 5 6 6 6 6 6 5 5 4 3 3 3 3 4 5 4 3 3 3 3 3 3 3 2 2 2 3 3 3 3 3 3 3 3 3 3 3 3 3 3 3 3 3 3 3
4 4 5 5 5 4 4 4 4 4 5 6 6 6 6 5 5 4 3 3 3 3 3 4 4 4 4 4 4 3 3 3 2 2 2 3 2 2 2 3 3 3 3 3 3 3 3 3 3 3 3 4 4 4
4 4 4 4 4 4 4 4 4 4 5 6 7 6 6 5 5 5 4 3 3 3 3 4 4 4 3 3 3 3 3 3 3 3 3 2 2 2 2 3 3 2 3 3 3 3 3 3 3 3 3 4 4 4
4 4 4 4 4 3 3 3 4 4 5 6 7 7 6 6 6 6 4 4 3 3 3 4 4 4 3 3 3 3 3 3 3 3 3 3 3 3 3 3 3 3 3 3 3 2 2 2 2 3 3 3 3 3
Wind_Speed
27 25 25 26 29 34 40 47 55 61 66 73 81 88 93 97 101 102 97 90 78 88 100 110 116 115 114 112 112 111 114 110 109 110 110 107 104 103 104 97 105 106 111 110 112 115 110 99 107 108 106 107 107 109
26 22 18 19 23 27 33 39 45 51 58 66 74 84 92 94 101 98 97 91 82 81 88 99 107 115 118 119 119 120 119 117 117 118 116 116 113 112 107 107 107 109 105 112 118 116 113 109 108 109 109 111 113 115
25 22 17 15 18 22 27 32 38 44 52 59 67 77 87 90 94 98 95 90 87 84 84 87 95 102 110 117 121 123 124 124 123 124 124 125 123 118 116 113 116 115 114 116 117 113 110 109 108 106 106 109 112 112
25 23 18 13 13 16 20 23 30 39 48 56 63 71 77 82 86 89 88 90 87 86 81 73 80 85 95 104 113 120 125 126 127 128 130 130 129 127 124 121 121 125 124 122 122 121 119 117 115 114 114 114 116 118
26 23 19 14 11 11 14 21 27 36 43 48 54 60 65 72 74 78 85 88 87 86 80 77 77 82 89 98 104 110 118 126 129 132 135 135 135 133 130 130 130 127 127 129 129 129 128 125 125 124 123 124 125 125
24 22 20 16 11 10 11 15 22 28 34 37 42 47 52 58 65 68 77 81 83 84 83 78 76 81 84 89 95 102 107 113 119 125 129 132 134 134 135 136 134 133 134 134 135 136 136 135 135 133 134 134 133 134
23 21 19 16 14 9 9 12 16 21 25 31 37 44 49 54 61 70 77 78 80 80 81 80 78 81 85 88 88 90 97 105 112 115 119 123 126 130 133 133 134 135 137 139 141 142 143 143 142 142 142 143 142 142
21 20 18 16 14 11 8 9 12 15 18 23 30 39 46 52 58 66 73 79 83 84 81 79 77 79 84 87 86 86 87 90 96 102 106 111 114 118 123 125 127 128 130 133 137 141 144 146 148 147 146 148 149 149
17 17 18 17 15 13 11 9 10 12 14 17 22 29 37 44 50 55 60 65 67 69 70 72 76 79 82 86 88 86 86 91 92 94 94 97 100 103 105 109 115 118 120 123 127 131 135 139 143 148 151 152 152 151
17 15 15 15 16 15 14 13 12 12 14 15 17 20 25 32 38 44 51 56 59 64 66 70 73 76 78 82 86 89 89 92 91 91 92 92 92 95 97 98 102 106 111 115 118 121 125 129 133 137 139 140 141 140
19 17 16 15 14 15 16 16 15 15 15 15 17 19 20 22 26 32 38 43 48 53 58 63 67 69 70 76 80 83 85 87 89 88 91 86 87 89 91 93 96 100 104 109 113 117 119 123 126 128 128 129 130 130
19 18 16 15 15 14 13 14 15 18 19 19 19 19 20 21 23 27 29 33 37 42 46 50 55 60 65 69 74 77 81 82 82 82 86 85 84 87 88 89 91 93 94 96 100 104 108 113 116 120 122 123 123 124
20 17 16 15 14 14 15 14 13 13 16 17 18 19 21 22 23 26 26 27 30 32 36 41 45 50 55 58 63 66 70 72 74 75 75 78 80 82 83 83 84 84 85 86 88 90 93 95 99 102 106 109 111 112
22 21 19 17 16 15 15 14 13 14 14 13 13 15 18 20 23 25 28 31 33 36 38 41 44 48 51 53 55 59 62 65 67 69 72 76 76 75 77 78 79 79 79 81 82 83 84 85 87 89 91 94 96 98
22 22 22 22 20 19 17 14 13 12 12 13 14 15 16 18 19 23 27 29 33 35 39 42 46 49 52 56 59 62 64 65 66 69 72 74 76 77 77 78 80 81 81 81 81 82 83 83 83 84 84 85 87 88
23 23 23 22 21 21 20 17 15 15 16 18 21 23 25 26 28 31 33 35 37 39 42 45 48 50 51 54 57 58 60 62 65 67 70 73 75 76 76 76 77 78 78 79 80 79 79 81 81 82 83 84 84 84
24 23 21 20 20 20 20 21 22 22 22 23 24 25 28 30 32 34 36 38 40 42 44 46 48 51 53 57 60 62 64 64 65 67 67 68 68 69 70 71 71 71 71 72 74 77 78 80 80 81 83 84 82 84
26 25 25 24 23 23 22 22 24 26 29 32 33 35 36 36 37 37 37 38 38 40 41 42 43 44 45 47 49 51 53 54 57 60 63 64 65 66 69 70 71 69 68 68 68 69 70 70 71 72 72 75 75 77
28 28 27 27 26 25 27 29 30 31 33 34 35 35 36 36 37 38 38 38 37 36 36 38 39 41 41 40 42 41 39 40 43 44 47 48 50 53 55 56 58 60 60 60 61 64 66 66 68 68 67 66 68 69
32 30 28 28 29 30 32 32 32 31 30 29 29 31 34 35 36 36 36 36 36 37 39 40 40 39 40 39 39 40 40 41 41 42 40 37 34 36 38 40 42 42 44 46 50 53 55 55 58 58 57 57 59 63
31 30 30 31 31 31 32 30 28 27 30 35 38 40 39 38 36 36 36 37 38 40 42 42 41 42 42 42 42 42 40 41 42 43 45 44 38 35 38 36 36 39 41 43 45 45 45 44 41 42 44 50 52 53
32 31 32 32 32 31 30 33 35 39 43 43 43 41 39 39 38 37 36 34 33 35 36 35 35 34 32 31 31 32 33 33 35 38 35 33 33 30 26 24 27 28 34 42 43 41 35 31 29 32 39 41 43 47
31 31 32 30 30 33 38 42 45 47 48 47 45 42 40 37 34 31 30 28 27 27 27 25 25 27 26 26 26 27 29 29 31 33 32 31 30 30 28 24 24 26 29 32 32 29 28 29 31 34 38 41 42 39
35 34 32 35 40 44 46 46 46 46 45 45 43 41 38 36 35 33 31 29 27 29 30 28 25 25 26 27 27 25 24 24 26 29 31 29 26 26 26 25 24 23 23 24 24 23 24 23 23 25 26 28 30 31
36 35 39 44 45 44 45 46 46 45 45 43 40 39 41 42 41 39 37 34 32 31 30 31 32 28 24 21 21 22 22 21 20 20 21 21 20 20 20 20 19 18 18 18 19 22 24 21 19 19 20 21 24 26
42 45 47 48 48 46 46 45 44 42 43 44 43 44 44 44 44 42 41 39 37 34 31 30 29 29 27 23 20 19 18 17 18 18 18 18 18 17 16 16 15 14 14 15 15 14 15 14 13 13 14 15 16 17
53 50 48 46 45 45 45 45 44 43 44 45 45 45 43 43 44 41 40 40 37 34 31 30 30 29 29 28 26 24 23 21 19 15 16 16 14 12 12 12 12 11 11 10 9 10 10 11 12 13 14 14 14 14
50 48 47 45 45 45 45 45 44 43 43 43 41 42 43 44 44 41 38 37 38 37 35 32 30 30 29 28 28 26 25 23 21 19 18 14 12 12 12 12 11 10 10 10 10 9 9 9 8 8 8 9 9 8
50 49 48 48 48 48 47 45 44 43 43 45 47 47 47 47 46 44 39 37 36 35 34 33 31 30 29 27 26 24 23 22 20 19 16 14 15 14 12 12 11 10 9 8 8 7 7 6 6 5 4 4 3 2
54 54 52 52 51 50 48 47 47 47 48 50 51 51 50 50 49 47 44 42 40 39 37 36 34 33 31 29 27 25 22 21 20 18 18 17 16 14 13 13 12 11 9 8 8 7 6 6 6 6 5 5 4 4
59 58 57 55 53 52 51 52 53 53 53 53 54 53 52 51 50 50 49 47 45 43 40 36 33 31 30 30 29 28 26 24 22 20 21 20 16 15 16 16 15 13 12 10 9 8 7 6 6 7 7 7 6 6
65 63 61 59 58 57 57 57 57 57 56 56 56 55 54 53 52 51 49 46 44 43 42 41 38 36 35 34 33 31 28 26 26 24 21 18 19 19 19 18 16 15 14 13 12 10 9 8 8 9 9 9 9 9
72 70 69 68 65 63 62 61 61 60 59 57 56 55 54 54 52 51 50 48 45 44 43 43 42 39 38 37 36 34 32 31 29 27 26 24 23 22 21 19 17 17 16 16 14 13 12 11 11 11 11 10 10 10
Wind_Direction
308 290 277 265 254 247 240 237 235 232 230 229 230 232 233 234 237 240 244 242 234 230 232 231 232 234 234 234 237 239 241 241 243 246 246 246 246 247 246 246 247 249 249 250 250 253 254 253 250 250 252 254 254 255
325 306 292 273 258 246 242 237 233 232 230 228 228 229 233 233 237 242 245 246 243 237 232 233 233 231 233 236 235 237 240 242 244 245 246 249 249 248 249 248 251 250 252 250 250 252 253 251 252 253 253 255 254 252
332 324 304 285 263 251 241 237 231 228 227 227 227 227 231 234 236 238 243 246 247 247 242 236 236 236 236 236 236 239 241 242 244 246 246 247 248 248 249 251 250 252 252 253 254 253 256 255 255 255 254 255 256 256
339 336 324 304 278 258 244 235 229 229 225 225 226 228 232 234 236 240 243 245 246 247 247 242 240 237 236 237 238 240 240 241 243 245 247 248 248 248 247 247 249 252 252 253 254 255 256 258 257 257 257 257 258 258
339 341 334 320 293 267 248 235 233 227 230 232 232 232 234 237 240 239 241 244 247 248 249 247 241 238 237 237 237 238 240 241 241 243 244 245 247 248 249 248 248 249 251 253 254 255 255 257 258 257 258 259 260 261
332 339 340 334 313 281 250 239 236 236 236 233 235 240 242 242 245 245 241 245 248 251 252 251 248 247 244 241 238 239 241 242 243 245 246 248 248 249 249 250 250 251 251 251 253 255 255 255 256 256 256 258 258 259
324 330 338 337 331 304 266 244 236 237 236 233 228 226 227 230 236 242 247 248 250 253 253 253 251 249 250 249 248 244 242 243 245 247 247 249 250 251 252 253 252 252 252 253 254 255 256 257 257 257 258 259 259 259
324 321 325 330 328 322 290 254 240 237 233 235 233 229 229 228 225 226 232 239 242 246 248 249 249 250 251 252 253 254 252 249 247 247 248 250 251 253 254 255 256 256 256 256 256 256 257 258 259 260 260 261 262 262
331 322 316 314 317 314 308 287 253 238 233 234 234 234 236 236 236 237 239 242 245 247 249 250 251 250 249 252 256 256 254 255 253 252 252 252 251 251 252 253 255 257 257 257 257 258 259 259 259 260 261 261 262 263
341 335 322 313 305 302 299 294 286 265 246 236 232 235 241 242 243 245 245 246 247 249 249 249 250 251 253 253 254 255 256 257 257 256 255 255 254 254 253 252 250 251 252 253 254 255 256 257 258 258 259 259 259 261
349 343 333 326 315 302 293 288 285 277 268 258 248 242 238 238 245 250 250 249 250 251 251 251 251 252 252 252 252 253 254 255 255 256 257 256 256 255 255 254 252 251 249 249 250 252 254 255 257 259 261 262 263 264
349 349 344 334 324 317 310 298 283 275 272 267 263 260 259 256 252 250 251 254 257 258 256 255 254 255 255 254 254 254 254 255 257 257 257 258 259 259 258 256 255 254 253 252 251 252 253 254 256 257 260 262 263 265
350 352 347 340 331 324 318 313 302 290 282 275 270 271 268 269 271 261 261 261 259 258 258 258 258 257 256 256 256 257 259 260 261 262 263 263 262 262 263 263 263 263 262 261 260 259 259 258 258 258 259 260 261 262
351 350 351 349 342 336 331 324 315 306 299 292 282 276 275 274 274 271 269 265 266 266 264 263 263 262 260 259 259 259 259 259 260 261 260 260 261 262 262 263 263 263 263 263 263 263 263 262 263 262 262 263 263 263
355 354 353 351 347 343 343 339 328 319 310 309 306 301 295 285 283 279 277 275 273 273 272 270 267 266 265 264 265 265 265 265 264 261 261 263 262 263 264 264 263 264 265 264 264 264 264 264 264 264 264 263 263 264
355 354 352 348 346 341 338 339 337 334 331 325 321 317 313 308 302 297 294 292 288 284 280 277 276 275 274 272 271 270 268 265 265 264 264 265 265 266 267 267 266 265 265 266 266 266 265 265 264 264 265 264 265 265
355 353 350 350 348 347 346 343 338 334 330 325 321 317 312 306 301 297 292 287 283 280 277 276 275 274 273 272 272 271 272 273 274 275 276 275 274 272 271 270 269 267 265 264 263 264 263 264 264 264 264 266 266 266
357 359 1 359 357 353 348 343 339 336 333 331 326 320 314 309 305 302 297 293 290 288 285 283 279 276 272 270 269 269 270 269 268 267 268 269 270 271 271 271 272 273 273 273 272 270 269 267 267 265 264 264 265 265
2 5 4 360 357 355 352 348 344 338 330 322 317 314 312 311 309 308 306 306 303 301 297 292 289 289 288 287 286 283 280 279 277 273 268 267 264 264 264 264 265 266 266 265 264 264 265 265 266 266 266 265 264 264
4 4 3 1 0 356 351 345 336 328 323 324 322 324 323 322 321 319 317 314 311 308 305 302 303 302 298 298 297 296 296 293 290 287 282 279 276 276 271 266 264 263 261 259 258 259 261 262 260 264 266 264 262 262
6 2 2 0 355 351 344 334 332 339 342 344 345 341 336 332 330 328 326 325 321 314 309 310 310 305 302 302 300 298 295 292 290 288 289 294 294 284 281 283 280 275 273 270 266 263 263 265 265 262 260 258 258 261
7 4 0 356 354 344 345 353 357 356 353 349 346 343 341 337 336 333 326 320 314 307 303 302 299 297 295 295 293 293 291 290 288 289 291 292 293 288 283 275 269 266 266 267 274 282 286 281 271 262 257 259 259 259
8 4 1 355 352 360 3 3 360 357 352 348 347 345 342 338 334 331 330 327 323 316 314 315 313 312 313 312 310 307 305 304 302 303 307 308 304 302 301 296 285 276 270 270 274 273 269 265 262 261 261 264 269 271
8 6 1 4 9 9 6 1 358 355 350 349 350 348 344 343 346 346 348 352 350 342 336 335 337 333 330 327 322 318 314 308 303 300 303 305 304 301 300 298 293 288 284 281 278 271 267 266 268 270 272 272 268 261
9 8 11 13 11 7 3 0 357 354 353 352 351 353 355 355 354 355 356 359 359 354 346 340 339 341 341 338 333 327 322 317 313 308 305 306 307 304 300 298 295 291 290 290 291 284 276 271 270 271 273 272 270 268
14 15 15 12 8 4 1 359 356 355 356 357 358 2 2 1 0 358 357 358 359 357 352 349 346 345 347 349 348 345 340 334 332 325 321 318 314 311 311 312 307 301 297 293 288 278 271 269 269 271 271 268 263 258
18 15 13 9 6 3 1 358 358 359 2 4 5 5 6 7 6 3 360 358 358 360 360 357 355 357 356 357 358 356 354 353 345 338 337 328 321 325 334 332 324 318 314 307 309 312 307 301 291 282 275 268 261 255
15 12 10 8 5 4 2 2 3 5 6 7 8 10 11 12 11 11 7 3 1 2 5 6 6 5 2 1 359 358 357 357 356 360 351 340 348 353 355 354 352 350 350 345 339 331 319 309 299 294 285 275 266 261
13 10 8 8 8 7 7 6 7 9 9 12 15 15 14 14 13 13 13 13 13 11 8 8 10 12 12 9 5 3 2 1 1 4 353 355 10 5 7 12 10 7 7 6 3 2 357 350 342 335 334 334 339 339
15 14 12 12 11 10 10 11 13 13 14 16 17 17 16 15 14 14 14 16 16 17 17 16 14 15 16 15 14 12 11 10 9 10 10 15 14 13 16 21 22 20 22 30 36 40 46 50 54 56 55 57 65 75
18 17 16 15 15 14 15 17 18 18 17 18 18 17 17 16 16 16 16 16 16 16 18 19 22 23 22 20 17 15 16 18 18 19 24 21 15 22 29 30 27 26 26 30 36 39 45 55 65 73 77 79 84 91
20 20 19 18 18 19 19 21 21 21 20 19 18 17 17 17 18 18 18 17 16 16 17 19 20 23 25 27 26 25 24 24 27 29 27 27 29 30 31 32 32 32 32 34 38 42 48 56 65 72 76 81 87 94
21 20 20 20 20 20 21 22 23 23 22 20 19 18 18 19 18 17 17 18 18 19 19 19 20 22 25 26 27 27 28 30 32 33 34 34 35 36 35 34 35 39 40 38 38 40 45 52 63 74 82 89 95 98